| time (UTC) | temp C | wind direction | speed KPH | gust KPH | rain 1hr cm | rain 24hr cm | rain mn cm | humidity % | barometer mb |
| 20260506143902 | 13 | 158 | 0.0 | 3.2 | 0.00 | 0.00 | 0.00 | 57 | 1006.1 |
| 20260506142902 | 12 | 158 | 0.0 | 4.8 | 0.00 | 0.00 | 0.00 | 58 | 1006.2 |
| 20260506142403 | 12 | 158 | 0.0 | 4.8 | 0.00 | 0.00 | 0.00 | 59 | 1006.2 |
| 20260506141903 | 12 | 158 | 0.0 | 0.0 | 0.00 | 0.00 | 0.00 | 59 | 1006.2 |
| 20260506141403 | 12 | 158 | 0.0 | 0.0 | 0.00 | 0.00 | 0.00 | 59 | 1006.3 |
| 20260506140903 | 12 | 158 | 0.0 | 0.0 | 0.00 | 0.00 | 0.00 | 60 | 1006.4 |
| 20260506140403 | 12 | 158 | 0.0 | 3.2 | 0.00 | 0.00 | 0.00 | 62 | 1006.2 |
| 20260506135902 | 12 | 158 | 1.6 | 3.2 | 0.00 | 0.00 | 0.00 | 62 | 1006.2 |
| 20260506134903 | 11 | 158 | 1.6 | 4.8 | 0.00 | 0.00 | 0.00 | 63 | 1006.2 |
| 20260506133402 | 11 | 158 | 0.0 | 0.0 | 0.00 | 0.00 | 0.00 | 64 | 1006.1 |
| 20260506132903 | 11 | 158 | 0.0 | 0.0 | 0.00 | 0.00 | 0.00 | 64 | 1006.1 |
| 20260506132403 | 10 | 158 | 0.0 | 0.0 | 0.00 | 0.00 | 0.00 | 65 | 1005.9 |
| 20260506131902 | 10 | 158 | 0.0 | 0.0 | 0.00 | 0.00 | 0.00 | 64 | 1005.9 |
| 20260506131403 | 10 | 158 | 0.0 | 0.0 | 0.00 | 0.00 | 0.00 | 62 | 1005.8 |
| 20260506130903 | 10 | 158 | 0.0 | 0.0 | 0.00 | 0.00 | 0.00 | 63 | 1005.7 |
| 20260506130403 | 10 | 158 | 0.0 | 1.6 | 0.00 | 0.00 | 0.00 | 66 | 1005.6 |
| 20260506125403 | 10 | 158 | 0.0 | 0.0 | 0.00 | 0.00 | 0.00 | 66 | 1005.6 |
| 20260506124903 | 10 | 158 | 0.0 | 0.0 | 0.00 | 0.00 | 0.00 | 64 | 1005.6 |
| 20260506123903 | 10 | 158 | 0.0 | 0.0 | 0.00 | 0.00 | 0.00 | 63 | 1005.6 |
| 20260506122903 | 10 | 158 | 0.0 | 0.0 | 0.00 | 0.00 | 0.00 | 62 | 1005.5 |
| 20260506122402 | 10 | 158 | 0.0 | 0.0 | 0.00 | 0.00 | 0.00 | 61 | 1005.5 |
| 20260506121903 | 10 | 158 | 0.0 | 0.0 | 0.00 | 0.00 | 0.00 | 60 | 1005.4 |
| 20260506121403 | 10 | 158 | 0.0 | 0.0 | 0.00 | 0.00 | 0.00 | 60 | 1005.3 |
| 20260506120903 | 10 | 158 | 0.0 | 0.0 | 0.00 | 0.00 | 0.00 | 60 | 1005.3 |
| 20260506120403 | 10 | 158 | 0.0 | 0.0 | 0.00 | 0.00 | 0.00 | 60 | 1005.3 |
| 20260506115902 | 11 | 158 | 0.0 | 0.0 | 0.00 | 0.00 | 0.00 | 60 | 1005.4 |
| 20260506115403 | 11 | 158 | 0.0 | 0.0 | 0.00 | 0.00 | 0.00 | 60 | 1005.2 |
| 20260506114903 | 11 | 158 | 0.0 | 0.0 | 0.00 | 0.00 | 0.00 | 60 | 1005.2 |
| 20260506114402 | 11 | 158 | 0.0 | 0.0 | 0.00 | 0.00 | 0.00 | 59 | 1005.2 |
| 20260506113903 | 11 | 158 | 0.0 | 0.0 | 0.00 | 0.00 | 0.00 | 58 | 1005.2 |
| 20260506113402 | 11 | 158 | 0.0 | 0.0 | 0.00 | 0.00 | 0.00 | 58 | 1005.2 |
| 20260506112903 | 11 | 158 | 0.0 | 0.0 | 0.00 | 0.00 | 0.00 | 57 | 1005.3 |
| 20260506112402 | 11 | 158 | 0.0 | 0.0 | 0.00 | 0.00 | 0.00 | 56 | 1005.2 |
| 20260506111903 | 11 | 158 | 0.0 | 0.0 | 0.00 | 0.00 | 0.00 | 56 | 1005.1 |
| 20260506110403 | 12 | 158 | 0.0 | 0.0 | 0.00 | 0.00 | 0.00 | 56 | 1005.0 |
| 20260506105903 | 12 | 158 | 0.0 | 0.0 | 0.00 | 0.00 | 0.00 | 56 | 1004.9 |
| 20260506103902 | 12 | 158 | 0.0 | 0.0 | 0.00 | 0.00 | 0.00 | 53 | 1004.8 |
| 20260506103403 | 12 | 158 | 0.0 | 0.0 | 0.00 | 0.00 | 0.00 | 52 | 1004.8 |
| 20260506102902 | 12 | 158 | 0.0 | 0.0 | 0.00 | 0.00 | 0.00 | 53 | 1004.9 |
| 20260506102403 | 12 | 158 | 0.0 | 0.0 | 0.00 | 0.00 | 0.00 | 53 | 1004.9 |
| 20260506101902 | 12 | 158 | 0.0 | 0.0 | 0.00 | 0.00 | 0.00 | 53 | 1004.9 |
| 20260506101403 | 12 | 158 | 0.0 | 0.0 | 0.00 | 0.00 | 0.00 | 53 | 1004.8 |
| 20260506100403 | 13 | 158 | 0.0 | 0.0 | 0.00 | 0.00 | 0.00 | 52 | 1004.6 |
| 20260506095902 | 13 | 158 | 3.2 | 8.0 | 0.00 | 0.00 | 0.00 | 52 | 1004.5 |
| 20260506094902 | 13 | 158 | 0.0 | 0.0 | 0.00 | 0.00 | 0.00 | 50 | 1004.4 |
| 20260506094403 | 13 | 158 | 0.0 | 0.0 | 0.00 | 0.00 | 0.00 | 49 | 1004.4 |
| 20260506093902 | 13 | 158 | 0.0 | 1.6 | 0.00 | 0.00 | 0.00 | 50 | 1004.4 |
| 20260506093403 | 13 | 158 | 0.0 | 0.0 | 0.00 | 0.00 | 0.00 | 49 | 1004.4 |
| 20260506092903 | 13 | 158 | 0.0 | 0.0 | 0.00 | 0.00 | 0.00 | 50 | 1004.3 |
| 20260506092403 | 13 | 93 | 0.0 | 0.0 | 0.00 | 0.00 | 0.00 | 50 | 1004.3 |
| 20260506091902 | 13 | 93 | 0.0 | 0.0 | 0.00 | 0.00 | 0.00 | 51 | 1004.3 |
| 20260506091403 | 13 | 93 | 0.0 | 0.0 | 0.00 | 0.00 | 0.00 | 51 | 1004.3 |
| 20260506090903 | 13 | 93 | 0.0 | 0.0 | 0.00 | 0.00 | 0.00 | 52 | 1004.3 |
| 20260506085903 | 13 | 93 | 0.0 | 0.0 | 0.00 | 0.00 | 0.00 | 52 | 1004.3 |
| 20260506084903 | 13 | 93 | 0.0 | 0.0 | 0.00 | 0.00 | 0.00 | 50 | 1004.3 |
| 20260506084403 | 13 | 93 | 0.0 | 0.0 | 0.00 | 0.00 | 0.00 | 48 | 1004.3 |
| 20260506082903 | 14 | 93 | 0.0 | 0.0 | 0.00 | 0.00 | 0.00 | 48 | 1004.3 |
| 20260506082403 | 14 | 93 | 0.0 | 0.0 | 0.00 | 0.00 | 0.00 | 48 | 1004.3 |
| 20260506081902 | 14 | 93 | 0.0 | 0.0 | 0.00 | 0.00 | 0.00 | 48 | 1004.2 |
| 20260506081403 | 14 | 93 | 0.0 | 0.0 | 0.00 | 0.00 | 0.00 | 47 | 1004.1 |
| 20260506080902 | 14 | 93 | 0.0 | 0.0 | 0.00 | 0.00 | 0.00 | 47 | 1004.1 |
| 20260506080403 | 15 | 93 | 0.0 | 0.0 | 0.00 | 0.00 | 0.00 | 47 | 1004.3 |
| 20260506073403 | 15 | 93 | 0.0 | 0.0 | 0.00 | 0.00 | 0.00 | 46 | 1004.1 |
| 20260506072903 | 15 | 93 | 0.0 | 0.0 | 0.00 | 0.00 | 0.00 | 46 | 1003.9 |
| 20260506071402 | 15 | 93 | 0.0 | 3.2 | 0.00 | 0.00 | 0.00 | 46 | 1003.9 |
| 20260506070903 | 15 | 93 | 0.0 | 0.0 | 0.00 | 0.00 | 0.00 | 47 | 1003.9 |
| 20260506070403 | 15 | 93 | 0.0 | 0.0 | 0.00 | 0.00 | 0.00 | 47 | 1003.9 |
| 20260506062403 | 16 | 93 | 0.0 | 0.0 | 0.00 | 0.00 | 0.00 | 44 | 1003.4 |
| 20260506061403 | 16 | 93 | 0.0 | 0.0 | 0.00 | 0.00 | 0.00 | 43 | 1003.4 |
| 20260506060404 | 17 | 93 | 0.0 | 0.0 | 0.00 | 0.00 | 0.00 | 41 | 1003.6 |
| 20260506051403 | 18 | 93 | 0.0 | 0.0 | 0.00 | 0.00 | 0.00 | 38 | 1003.2 |
| 20260506050904 | 18 | 93 | 0.0 | 0.0 | 0.00 | 0.00 | 0.00 | 37 | 1003.1 |
| 20260506050403 | 18 | 93 | 0.0 | 0.0 | 0.00 | 0.00 | 0.00 | 36 | 1003.1 |
| 20260506044403 | 20 | 93 | 0.0 | 0.0 | 0.00 | 0.00 | 0.00 | 35 | 1002.9 |
| 20260506043903 | 20 | 93 | 0.0 | 0.0 | 0.00 | 0.00 | 0.00 | 34 | 1002.8 |
| 20260506043403 | 20 | 93 | 0.0 | 0.0 | 0.00 | 0.00 | 0.00 | 34 | 1002.7 |
| 20260506042402 | 20 | 93 | 0.0 | 0.0 | 0.00 | 0.00 | 0.00 | 34 | 1002.7 |
| 20260506041903 | 21 | 93 | 0.0 | 0.0 | 0.00 | 0.00 | 0.00 | 33 | 1002.6 |
| 20260506041403 | 21 | 93 | 0.0 | 0.0 | 0.00 | 0.00 | 0.00 | 32 | 1002.6 |
| 20260506040903 | 21 | 93 | 0.0 | 0.0 | 0.00 | 0.00 | 0.00 | 31 | 1002.5 |
| 20260506040403 | 21 | 93 | 0.0 | 0.0 | 0.00 | 0.00 | 0.00 | 30 | 1002.6 |
| 20260506035903 | 22 | 93 | 0.0 | 0.0 | 0.00 | 0.00 | 0.00 | 29 | 1002.6 |
| 20260506035403 | 22 | 93 | 0.0 | 0.0 | 0.00 | 0.00 | 0.00 | 28 | 1002.5 |
| 20260506033903 | 23 | 93 | 0.0 | 0.0 | 0.00 | 0.00 | 0.00 | 26 | 1002.3 |
| 20260506033403 | 23 | 93 | 0.0 | 0.0 | 0.00 | 0.00 | 0.00 | 26 | 1002.2 |
| 20260506032403 | 23 | 93 | 0.0 | 0.0 | 0.00 | 0.00 | 0.00 | 25 | 1002.1 |
| 20260506031903 | 24 | 93 | 0.0 | 0.0 | 0.00 | 0.00 | 0.00 | 25 | 1002.0 |
| 20260506031402 | 24 | 93 | 0.0 | 0.0 | 0.00 | 0.00 | 0.00 | 25 | 1002.0 |
| 20260506030903 | 25 | 93 | 0.0 | 0.0 | 0.00 | 0.00 | 0.00 | 24 | 1002.0 |
| 20260506030403 | 25 | 93 | 0.0 | 0.0 | 0.00 | 0.00 | 0.00 | 23 | 1002.2 |
| 20260506025903 | 25 | 93 | 0.0 | 0.0 | 0.00 | 0.00 | 0.00 | 23 | 1002.2 |
| 20260506025403 | 25 | 93 | 0.0 | 0.0 | 0.00 | 0.00 | 0.00 | 23 | 1002.2 |
| 20260506024903 | 26 | 93 | 0.0 | 1.6 | 0.00 | 0.00 | 0.00 | 22 | 1002.2 |
| 20260506024403 | 26 | 93 | 0.0 | 1.6 | 0.00 | 0.00 | 0.00 | 22 | 1002.1 |
| 20260506023903 | 26 | 86 | 0.0 | 1.6 | 0.00 | 0.00 | 0.00 | 22 | 1002.1 |
| 20260506023403 | 26 | 44 | 0.0 | 1.6 | 0.00 | 0.00 | 0.00 | 22 | 1002.2 |
| 20260506022903 | 26 | 50 | 0.0 | 4.8 | 0.00 | 0.00 | 0.00 | 22 | 1002.2 |
| 20260506021902 | 26 | 31 | 1.6 | 8.0 | 0.00 | 0.00 | 0.00 | 21 | 1002.2 |
| 20260506021403 | 27 | 8 | 1.6 | 4.8 | 0.00 | 0.00 | 0.00 | 21 | 1002.2 |
| 20260506020403 | 27 | 355 | 1.6 | 9.7 | 0.00 | 0.00 | 0.00 | 21 | 1002.3 |
| 20260506015403 | 27 | 114 | 0.0 | 9.7 | 0.00 | 0.00 | 0.00 | 20 | 1002.4 |
| 20260506014403 | 27 | 0 | 0.0 | 4.8 | 0.00 | 0.00 | 0.00 | 20 | 1002.4 |
| 20260506013403 | 27 | 75 | 0.0 | 3.2 | 0.00 | 0.00 | 0.00 | 20 | 1002.4 |
| 20260506012403 | 27 | 192 | 1.6 | 4.8 | 0.00 | 0.00 | 0.00 | 20 | 1002.5 |
| 20260506011903 | 27 | 102 | 0.0 | 4.8 | 0.00 | 0.00 | 0.00 | 19 | 1002.5 |
| 20260506010903 | 28 | 84 | 1.6 | 8.0 | 0.00 | 0.00 | 0.00 | 18 | 1002.6 |
| 20260506010403 | 28 | 91 | 0.0 | 3.2 | 0.00 | 0.00 | 0.00 | 19 | 1002.8 |
| 20260506005403 | 28 | 111 | 0.0 | 1.6 | 0.00 | 0.00 | 0.00 | 19 | 1002.9 |
| 20260506004903 | 28 | 94 | 1.6 | 8.0 | 0.00 | 0.00 | 0.00 | 18 | 1002.9 |
| 20260506004403 | 28 | 100 | 1.6 | 9.7 | 0.00 | 0.00 | 0.00 | 18 | 1002.9 |
| 20260506003403 | 28 | 93 | 0.0 | 1.6 | 0.00 | 0.00 | 0.00 | 19 | 1003.0 |
| 20260506002902 | 28 | 150 | 0.0 | 1.6 | 0.00 | 0.00 | 0.00 | 18 | 1003.0 |
| 20260506002404 | 28 | 25 | 0.0 | 4.8 | 0.00 | 0.00 | 0.00 | 18 | 1003.1 |
| 20260506001903 | 28 | 158 | 0.0 | 8.0 | 0.00 | 0.00 | 0.00 | 20 | 1003.1 |
| 20260506001403 | 28 | 126 | 0.0 | 1.6 | 0.00 | 0.00 | 0.00 | 19 | 1003.2 |
| 20260506000903 | 28 | 82 | 0.0 | 11.3 | 0.00 | 0.00 | 0.00 | 19 | 1003.4 |
| 20260506000403 | 28 | 46 | 0.0 | 4.8 | 0.00 | 0.00 | 0.00 | 19 | 1003.4 |
| 20260505235402 | 28 | 128 | 0.0 | 3.2 | 0.00 | 0.00 | 0.00 | 18 | 1003.5 |
| 20260505234903 | 28 | 98 | 0.0 | 9.7 | 0.00 | 0.00 | 0.00 | 18 | 1003.5 |
| 20260505234403 | 28 | 96 | 0.0 | 4.8 | 0.00 | 0.00 | 0.00 | 19 | 1003.6 |
| 20260505233903 | 28 | 112 | 0.0 | 4.8 | 0.00 | 0.00 | 0.00 | 20 | 1003.6 |
| 20260505233403 | 28 | 98 | 0.0 | 8.0 | 0.00 | 0.00 | 0.00 | 20 | 1003.6 |
| 20260505232903 | 28 | 91 | 3.2 | 12.9 | 0.00 | 0.00 | 0.00 | 20 | 1003.7 |
| 20260505232403 | 27 | 15 | 0.0 | 1.6 | 0.00 | 0.00 | 0.00 | 20 | 1003.8 |
| 20260505231903 | 27 | 99 | 0.0 | 8.0 | 0.00 | 0.00 | 0.00 | 19 | 1003.9 |
| 20260505231403 | 28 | 88 | 1.6 | 9.7 | 0.00 | 0.00 | 0.00 | 19 | 1004.0 |
| 20260505230903 | 28 | 83 | 0.0 | 9.7 | 0.00 | 0.00 | 0.00 | 20 | 1004.0 |
| 20260505225904 | 27 | 86 | 0.0 | 4.8 | 0.00 | 0.00 | 0.00 | 19 | 1004.0 |
| 20260505225403 | 27 | 103 | 0.0 | 4.8 | 0.00 | 0.00 | 0.00 | 19 | 1004.0 |
| 20260505224403 | 27 | 57 | 0.0 | 4.8 | 0.00 | 0.00 | 0.00 | 20 | 1004.2 |
| 20260505223903 | 27 | 29 | 0.0 | 3.2 | 0.00 | 0.00 | 0.00 | 20 | 1004.4 |
| 20260505223403 | 27 | 106 | 1.6 | 8.0 | 0.00 | 0.00 | 0.00 | 20 | 1004.5 |
| 20260505222903 | 27 | 96 | 1.6 | 12.9 | 0.00 | 0.00 | 0.00 | 20 | 1004.5 |
| 20260505222403 | 27 | 33 | 3.2 | 11.3 | 0.00 | 0.00 | 0.00 | 20 | 1004.5 |
| 20260505221903 | 27 | 92 | 3.2 | 11.3 | 0.00 | 0.00 | 0.00 | 20 | 1004.5 |
| 20260505220903 | 27 | 100 | 1.6 | 11.3 | 0.00 | 0.00 | 0.00 | 20 | 1004.6 |
| 20260505220403 | 27 | 120 | 0.0 | 12.9 | 0.00 | 0.00 | 0.00 | 21 | 1004.5 |
| 20260505215903 | 27 | 51 | 4.8 | 12.9 | 0.00 | 0.00 | 0.00 | 20 | 1004.6 |
| 20260505215404 | 27 | 109 | 0.0 | 9.7 | 0.00 | 0.00 | 0.00 | 22 | 1004.7 |
| 20260505214903 | 27 | 64 | 0.0 | 9.7 | 0.00 | 0.00 | 0.00 | 22 | 1004.8 |
| 20260505214403 | 27 | 81 | 4.8 | 12.9 | 0.00 | 0.00 | 0.00 | 22 | 1004.9 |
| 20260505213903 | 26 | 77 | 1.6 | 12.9 | 0.00 | 0.00 | 0.00 | 21 | 1004.9 |
| 20260505213403 | 26 | 144 | 3.2 | 11.3 | 0.00 | 0.00 | 0.00 | 22 | 1004.9 |
| 20260505212903 | 26 | 107 | 1.6 | 8.0 | 0.00 | 0.00 | 0.00 | 21 | 1005.0 |
| 20260505212403 | 26 | 284 | 3.2 | 9.7 | 0.00 | 0.00 | 0.00 | 22 | 1005.0 |
| 20260505211903 | 26 | 129 | 1.6 | 8.0 | 0.00 | 0.00 | 0.00 | 22 | 1005.1 |
| 20260505211403 | 26 | 159 | 1.6 | 8.0 | 0.00 | 0.00 | 0.00 | 22 | 1005.4 |
| 20260505210404 | 26 | 49 | 1.6 | 8.0 | 0.00 | 0.00 | 0.00 | 23 | 1005.3 |
| 20260505205903 | 26 | 80 | 0.0 | 9.7 | 0.00 | 0.00 | 0.00 | 22 | 1005.4 |
| 20260505205403 | 26 | 108 | 4.8 | 11.3 | 0.00 | 0.00 | 0.00 | 22 | 1005.4 |
| 20260505204902 | 26 | 67 | 4.8 | 11.3 | 0.00 | 0.00 | 0.00 | 22 | 1005.5 |
| 20260505204403 | 26 | 73 | 3.2 | 11.3 | 0.00 | 0.00 | 0.00 | 22 | 1005.5 |
| 20260505203903 | 25 | 104 | 3.2 | 16.1 | 0.00 | 0.00 | 0.00 | 22 | 1005.5 |
| 20260505202903 | 25 | 77 | 1.6 | 8.0 | 0.00 | 0.00 | 0.00 | 23 | 1005.7 |
| 20260505202403 | 25 | 27 | 3.2 | 12.9 | 0.00 | 0.00 | 0.00 | 22 | 1005.9 |
| 20260505201903 | 25 | 89 | 3.2 | 12.9 | 0.00 | 0.00 | 0.00 | 22 | 1005.9 |
| 20260505201403 | 25 | 119 | 6.4 | 16.1 | 0.00 | 0.00 | 0.00 | 22 | 1006.0 |
| 20260505200903 | 25 | 144 | 3.2 | 11.3 | 0.00 | 0.00 | 0.00 | 23 | 1006.0 |
| 20260505200403 | 25 | 121 | 4.8 | 12.9 | 0.00 | 0.00 | 0.00 | 23 | 1006.0 |
| 20260505195903 | 25 | 100 | 4.8 | 11.3 | 0.00 | 0.00 | 0.00 | 23 | 1006.0 |
| 20260505195403 | 25 | 78 | 4.8 | 16.1 | 0.00 | 0.00 | 0.00 | 22 | 1006.1 |
| 20260505194403 | 25 | 143 | 3.2 | 19.3 | 0.00 | 0.00 | 0.00 | 22 | 1006.2 |
| 20260505193903 | 24 | 71 | 4.8 | 11.3 | 0.00 | 0.00 | 0.00 | 22 | 1006.4 |
| 20260505193403 | 24 | 137 | 4.8 | 9.7 | 0.00 | 0.00 | 0.00 | 22 | 1006.4 |
| 20260505192403 | 24 | 88 | 3.2 | 11.3 | 0.00 | 0.00 | 0.00 | 22 | 1006.4 |
| 20260505191903 | 24 | 75 | 3.2 | 9.7 | 0.00 | 0.00 | 0.00 | 21 | 1006.5 |
| 20260505191403 | 23 | 103 | 3.2 | 12.9 | 0.00 | 0.00 | 0.00 | 21 | 1006.6 |
| 20260505190903 | 23 | 89 | 3.2 | 16.1 | 0.00 | 0.00 | 0.00 | 21 | 1006.7 |
| 20260505190403 | 23 | 96 | 4.8 | 16.1 | 0.00 | 0.00 | 0.00 | 21 | 1006.5 |
| 20260505185903 | 23 | 100 | 1.6 | 12.9 | 0.00 | 0.00 | 0.00 | 21 | 1006.5 |
| 20260505184903 | 23 | 63 | 4.8 | 9.7 | 0.00 | 0.00 | 0.00 | 22 | 1006.7 |
| 20260505184403 | 23 | 84 | 4.8 | 16.1 | 0.00 | 0.00 | 0.00 | 22 | 1006.8 |
| 20260505183903 | 22 | 56 | 3.2 | 8.0 | 0.00 | 0.00 | 0.00 | 22 | 1006.9 |
| 20260505183403 | 22 | 29 | 4.8 | 11.3 | 0.00 | 0.00 | 0.00 | 23 | 1007.0 |
| 20260505182904 | 22 | 82 | 3.2 | 9.7 | 0.00 | 0.00 | 0.00 | 23 | 1007.1 |
| 20260505181903 | 21 | 329 | 1.6 | 4.8 | 0.00 | 0.00 | 0.00 | 34 | 1007.1 |
| 20260505181403 | 21 | 338 | 3.2 | 9.7 | 0.00 | 0.00 | 0.00 | 32 | 1007.2 |
| 20260505180903 | 21 | 337 | 1.6 | 11.3 | 0.00 | 0.00 | 0.00 | 34 | 1007.2 |
| 20260505180403 | 21 | 336 | 3.2 | 9.7 | 0.00 | 0.00 | 0.00 | 38 | 1007.1 |
| 20260505175404 | 20 | 337 | 1.6 | 11.3 | 0.00 | 0.00 | 0.00 | 39 | 1007.1 |
| 20260505174404 | 20 | 311 | 0.0 | 8.0 | 0.00 | 0.00 | 0.00 | 38 | 1007.3 |
| 20260505173904 | 20 | 333 | 1.6 | 8.0 | 0.00 | 0.00 | 0.00 | 37 | 1007.4 |
| 20260505173403 | 20 | 330 | 1.6 | 4.8 | 0.00 | 0.00 | 0.00 | 36 | 1007.5 |
| 20260505172903 | 20 | 328 | 1.6 | 4.8 | 0.00 | 0.00 | 0.00 | 39 | 1007.5 |
| 20260505172404 | 20 | 321 | 0.0 | 8.0 | 0.00 | 0.00 | 0.00 | 39 | 1007.6 |
| 20260505171403 | 20 | 353 | 1.6 | 4.8 | 0.00 | 0.00 | 0.00 | 37 | 1007.6 |
| 20260505170903 | 20 | 333 | 1.6 | 4.8 | 0.00 | 0.00 | 0.00 | 37 | 1007.7 |
| 20260505170403 | 20 | 100 | 0.0 | 3.2 | 0.00 | 0.00 | 0.00 | 35 | 1007.5 |
| 20260505165904 | 20 | 93 | 0.0 | 8.0 | 0.00 | 0.00 | 0.00 | 34 | 1007.5 |
| 20260505165403 | 20 | 139 | 3.2 | 11.3 | 0.00 | 0.00 | 0.00 | 33 | 1007.5 |
| 20260505164904 | 20 | 121 | 1.6 | 4.8 | 0.00 | 0.00 | 0.00 | 34 | 1007.6 |
| 20260505164403 | 20 | 127 | 3.2 | 9.7 | 0.00 | 0.00 | 0.00 | 34 | 1007.6 |
| 20260505163903 | 20 | 142 | 1.6 | 4.8 | 0.00 | 0.00 | 0.00 | 34 | 1007.6 |
| 20260505163403 | 19 | 147 | 3.2 | 9.7 | 0.00 | 0.00 | 0.00 | 35 | 1007.6 |
| 20260505162903 | 19 | 143 | 3.2 | 8.0 | 0.00 | 0.00 | 0.00 | 36 | 1007.6 |
| 20260505162403 | 18 | 136 | 1.6 | 9.7 | 0.00 | 0.00 | 0.00 | 36 | 1007.7 |
| 20260505161903 | 18 | 123 | 3.2 | 11.3 | 0.00 | 0.00 | 0.00 | 38 | 1007.7 |
| 20260505161404 | 18 | 137 | 1.6 | 4.8 | 0.00 | 0.00 | 0.00 | 42 | 1007.7 |
| 20260505160404 | 17 | 134 | 0.0 | 0.0 | 0.00 | 0.00 | 0.00 | 43 | 1007.7 |
| 20260505152903 | 15 | 134 | 0.0 | 4.8 | 0.00 | 0.00 | 0.00 | 50 | 1008.1 |
| 20260505152403 | 14 | 134 | 0.0 | 3.2 | 0.00 | 0.00 | 0.00 | 52 | 1008.1 |
| 20260505151403 | 13 | 134 | 0.0 | 1.6 | 0.00 | 0.00 | 0.00 | 53 | 1008.2 |
| 20260505150904 | 13 | 134 | 0.0 | 1.6 | 0.00 | 0.00 | 0.00 | 54 | 1008.2 |
| 20260505150403 | 13 | 134 | 0.0 | 4.8 | 0.00 | 0.00 | 0.00 | 53 | 1008.1 |